Regional Weather Roundup
Issued by NWS Upton, NY

Current Version | Previous Version | Text Only | Print | Product List | Glossary On
Versions: 1 2 3 4 5 6 7 8 9 10 11 12 13 14 15 16 17 18 19 20 21 22 23 24 25 26 27 28 29 30 31 32 33 34 35 36 37 38 39 40 41 42 43 44 45 46 47 48 49 50
000
ASUS41 KOKX 181008
RWROKX

REGIONAL WEATHER ROUNDUP
NATIONAL WEATHER SERVICE NEW YORK NY
600 AM EDT SAT APR 18 2015

NOTE: "FAIR" INDICATES FEW OR NO CLOUDS BELOW 12,000 FEET WITH NO
SIGNIFICANT WEATHER AND/OR OBSTRUCTIONS TO VISIBILITY.

NYZ071-072-176-178-NJZ106-104-181100-
NEW YORK CITY METRO AREA


CITY           SKY/WX    TMP DP  RH WIND       PRES   REMARKS
CENTRAL PARK   CLEAR     59  43  55 NW5       29.99S
LAGUARDIA APRT PTCLDY    56  44  64 CALM      29.96S
KENNEDY INTL   PTCLDY    55  44  66 CALM      29.97S
NEWARK/LIBERTY PTCLDY    55  46  71 SW3       29.97R
BRNX BOT. GARD   N/A     55  43  62 CALM      29.97F
TETERBORO      CLEAR     51  45  79 CALM      29.96R
$$

NYZ177-179-078>081-181100-
LONG ISLAND NEW YORK

CITY           SKY/WX    TMP DP  RH WIND       PRES   REMARKS
FARMINGDALE    CLEAR     48  45  89 CALM      29.97R
ISLIP          PTCLDY    47  43  86 CALM      29.95S
SHIRLEY        CLEAR     46  44  93 CALM      29.97S
WESTHAMPTON    PTCLDY    37  34  89 N3        29.97S
MONTAUK POINT    N/A     51  45  79 W3        29.95S
$$

NYZ052-065-067-181100-
HUDSON VALLEY

CITY           SKY/WX    TMP DP  RH WIND       PRES   REMARKS
WHITE PLAINS   CLEAR     47  43  86 NW5       29.96R
NEWBURGH       CLEAR     43  43 100 CALM      29.97S
MONTGOMERY     CLEAR     41  39  93 CALM      29.96S
POUGHKEEPSIE   CLEAR     41  38  89 CALM      29.96R
ALBANY         PTCLDY    40  38  93 CALM      29.96R
$$

NJZ001-105-106-008-010-013-015-019>022-104-181100-
NEW JERSEY

CITY           SKY/WX    TMP DP  RH WIND       PRES   REMARKS
NEWARK/LIBERTY PTCLDY    55  46  71 SW3       29.97R
TETERBORO      CLEAR     51  45  79 CALM      29.96R
CALDWELL       CLEAR     47  43  86 CALM      29.98S
MORRISTOWN     PTCLDY    45  41  87 CALM      29.98S
SOMERVILLE     CLEAR     43  41  93 CALM      29.96S FOG
SUSSEX         CLEAR     41  39  93 CALM      29.99R FOG
ANDOVER          N/A     44  43  96 CALM      29.98S
TRENTON        CLEAR     51  48  89 CALM      29.97S
MILLVILLE      CLEAR     53  53 100 CALM      29.97R FOG
ATLANTIC CITY  CLEAR     54  52  94 CALM      29.97R FOG
WRIGHTSTOWN    FOG       51  51 100 CALM      29.94R VSB 1/4
TOMS RIVER     CLEAR     45  43  93 CALM      29.98R
BELMAR         MOCLDY    54  45  71 NW3       29.97S
$$

PAZ047>061-062-071-181100-
EASTERN PENNSYLVANIA

CITY           SKY/WX    TMP DP  RH WIND       PRES   REMARKS
PHILADELPHIA   PTCLDY    57  53  86 CALM      29.98S
ALLENTOWN      CLEAR     46  44  93 CALM      29.99R FOG
SCRANTON       CLEAR     44  41  89 SE3       30.00R
$$

CTZ002-004>006-009-010-012-RIZ004-006-007-MAZ004-011-015-181100-
SOUTHERN NEW ENGLAND
 IN CT

CITY           SKY/WX    TMP DP  RH WIND       PRES   REMARKS
BRADLEY INTL   CLEAR     44  41  89 CALM      29.95R
HARTFORD       FOG       42  41  96 CALM      29.95F VSB 1/2
DANBURY        CLEAR     39  36  89 CALM      29.97S
WTRBRY/OXFORD  CLEAR     46  37  71 N5        29.97S
BRIDGEPORT     CLEAR     45  43  93 CALM      29.96S
MERIDEN        CLEAR     41  39  93 CALM      29.96R FOG
NEW HAVEN      CLEAR     42  40  92 CALM      29.96R
CHESTER        FAIR      54  46  76 NW7       29.95S
GROTON         CLEAR     42  41  96 N6        29.94R FOG
WILLIMANTIC    FOG       40  38  93 CALM      29.95S VSB 1/2

 IN RI

CITY           SKY/WX    TMP DP  RH WIND       PRES   REMARKS
PROVIDENCE     CLEAR     49  43  80 W5        29.93R
BLOCK ISLAND   CLEAR     50  43  76 NW6       29.93S
WESTERLY       CLEAR     43  42  97 CALM      29.94S FOG

 IN MA

CITY           SKY/WX    TMP DP  RH WIND       PRES   REMARKS
BOSTON         CLEAR     52  43  71 W8        29.92R
WORCESTER      CLEAR     48  41  76 NW13      29.93R
WESTFIELD      CLEAR     44  41  89 CALM      29.94S
PROVINCETOWN   CLEAR     46  41  81 W3        29.92S
NANTUCKET      LGT RAIN  48  46  93 NW7       29.92R
$$

ANZ330-335-338-340-345-350-353-355-181100-
COASTAL MARINE OBSERVATIONS


STATION/POSITION TIME  SKY/WX   TEMP    WIND        PRES    VSBY  WAVE
                                AIR SEA DIR/SP/G                  HT/PER
                 (UTC)          (F)     (DEG/KT/KT) (MB)    (MI)  (FT/S)
NY HARB ENTRANCE 0950            55 47  300/  6/  6 1014.3          3/ 6
4S FIRE IS       0903               44                N/A           3/ 7
20S FIRE ISLAND  0850               44              1015.1          3/ 6
23SW MTP         0950                                 N/A           3/ 6
HUDSON CANYON    NOT AVBL
EXECUTION ROCKS  NOT AVBL
WESTERN LI SOUND NOT AVBL
CENTRAL LI SOUND NOT AVBL
EASTERN LI SOUND 0900            44     270/  4/  6   N/A
ROBBINS REEF     0900            60     290/  4/  4 1013.6
$$


>>>>>>>>>>>>>>>>>>>>>>>>>>>> KEY <<<<<<<<<<<<<<<<<<<<<<<<<<<
>                                                          <
>     SKY/WX - SKY CONDITION/PRESENT WEATHER               <
>     TMP    - TEMPERATURE IN FAHRENHEIT                   <
>     DP     - DEWPOINT IN FAHRENHEIT                      <
>     RH     - RELATIVE HUMIDITY IN PERCENT                <
>     WIND   - DIRECTION AND SPEED IN MPH                  <
>     PRES   - MEAN SEA LEVEL PRESSURE IN INCHES OF HG     <
>     WCI    - WIND CHILL INDEX                            <
>     VSB    - VISIBILITY IN MILES                         <
>     HX     - HEAT INDEX                                  <
>     TC     - TEMPERATURE IN CELSIUS                      <
>     VRB    - VARIABLE WIND DIRECTION                     <
>                                                          <
>>>>>>>>>>>>>>>>>>>>>>>>>>>> KEY <<<<<<<<<<<<<<<<<<<<<<<<<<<




USA.gov is the U.S. government's official web portal to all federal, state and local government web resources and services.